ASTERIA (43020 NORAD) Tracking and Keplerian Element Data

This shows tracking and keplerian element data for the satellite.

Feedback or suggestion? Click here.




ElementValue
Catalog43020
NameASTERIA
Epoch Orbit3722
Epoch Day198.51595523
Epoch Year2018
RAAN221.9144
Inclination51.6399
Eccentricity0.0002027
Argument of Perigee302.953
Mean Anonmoly57.1268
Mean Motion15.59919552
Decay Rate7.103E-05
L11 43020U 98067NH 18198.51595523 .00007103 00000-0 92630-4 0 9996
L22 43020 51.6399 221.9144 0002027 302.9530 57.1268 15.59919552 37224

Live tracking and technical data element details for ASTERIA (NORAD 43020). ASTERIA can be tracked NOW for your location showing map with azimuth and elevation plus other details from your city location.

Track the satellite on the map from your city or location and see movement details for azimuth, elevation, latitude, longitude, range, height, and movement on the map or in text.







IsCatalogInMostPopularTable: catalog: 43020, numindb: 87
Update: records affected: 1



GetName: 43020 ASTERIA

Hit Count: updated at: Thu, 19 Jul 2018 03:37:25 GMT